| time (UTC) | temp F | wind direction | speed knots | gust knots | rain 1hr in | rain 24hr in | rain mn in | humidity % | barometer mb |
| 20260505213027 | 53 | 322 | 4.3 | 13.9 | 0.00 | 0.00 | 0.00 | 34 | 1010.5 |
| 20260505211504 | 53 | 301 | 3.5 | 13.9 | 0.00 | 0.00 | 0.00 | 35 | 1010.7 |
| 20260505210003 | 53 | 300 | 5.2 | 11.3 | 0.00 | 0.00 | 0.00 | 35 | 1010.7 |
| 20260505204550 | 52 | 327 | 2.6 | 13.0 | 0.00 | 0.00 | 0.00 | 36 | 1010.7 |
| 20260505203049 | 52 | 309 | 2.6 | 9.6 | 0.00 | 0.00 | 0.00 | 37 | 1010.8 |
| 20260505201555 | 52 | 291 | 2.6 | 19.1 | 0.00 | 0.00 | 0.00 | 39 | 1010.9 |
| 20260505200047 | 52 | 290 | 4.3 | 11.3 | 0.00 | 0.00 | 0.00 | 38 | 1010.9 |
| 20260505194548 | 52 | 293 | 4.3 | 10.4 | 0.00 | 0.00 | 0.00 | 37 | 1010.9 |
| 20260505193046 | 52 | 287 | 2.6 | 13.9 | 0.00 | 0.00 | 0.00 | 38 | 1011.0 |
| 20260505191600 | 52 | 307 | 4.3 | 11.3 | 0.00 | 0.00 | 0.00 | 37 | 1010.9 |
| 20260505190054 | 52 | 311 | 1.7 | 8.7 | 0.00 | 0.00 | 0.00 | 37 | 1011.0 |
| 20260505184520 | 52 | 300 | 3.5 | 11.3 | 0.00 | 0.00 | 0.00 | 37 | 1011.1 |
| 20260505183017 | 51 | 306 | 3.5 | 8.7 | 0.00 | 0.00 | 0.00 | 39 | 1011.1 |
| 20260505181558 | 50 | 276 | 0.9 | 7.8 | 0.00 | 0.00 | 0.00 | 41 | 1011.2 |
| 20260505180056 | 50 | 332 | 3.5 | 7.0 | 0.00 | 0.00 | 0.00 | 40 | 1011.1 |
| 20260505174538 | 50 | 310 | 4.3 | 10.4 | 0.00 | 0.00 | 0.00 | 43 | 1011.2 |
| 20260505173046 | 49 | 316 | 2.6 | 7.8 | 0.00 | 0.00 | 0.00 | 45 | 1011.1 |
| 20260505171521 | 49 | 293 | 3.5 | 13.0 | 0.00 | 0.00 | 0.00 | 44 | 1011.1 |
| 20260505170019 | 49 | 341 | 3.5 | 8.7 | 0.00 | 0.00 | 0.00 | 44 | 1011.0 |
| 20260505164600 | 50 | 311 | 4.3 | 8.7 | 0.00 | 0.00 | 0.00 | 43 | 1011.0 |
| 20260505163056 | 49 | 292 | 2.6 | 7.8 | 0.00 | 0.00 | 0.00 | 43 | 1011.0 |
| 20260505161534 | 49 | 283 | 2.6 | 7.0 | 0.00 | 0.00 | 0.00 | 44 | 1011.1 |
| 20260505153017 | 48 | 257 | 3.5 | 14.8 | 0.00 | 0.00 | 0.00 | 47 | 1011.0 |
| 20260505151520 | 48 | 264 | 1.7 | 6.1 | 0.00 | 0.00 | 0.00 | 50 | 1011.0 |
| 20260505124527 | 0 | 0.0 | 0.0 | 0.00 | 0.00 | 0.00 | 1010.0 | ||
| 20260505123005 | 0 | 0.0 | 0.0 | 0.00 | 0.00 | 0.00 | 1010.0 | ||
| 20260505121502 | 0 | 0.0 | 0.0 | 0.00 | 0.00 | 0.00 | 1009.8 | ||
| 20260505120100 | 0 | 0.0 | 0.0 | 0.00 | 0.00 | 0.00 | 1009.7 | ||
| 20260505114535 | 0 | 0.0 | 0.0 | 0.00 | 0.00 | 0.00 | 1009.4 | ||
| 20260505113012 | 0 | 0.0 | 0.0 | 0.00 | 0.00 | 0.00 | 1009.1 | ||
| 20260505111508 | 0 | 0.0 | 0.0 | 0.00 | 0.00 | 0.00 | 1008.8 | ||
| 20260505101524 | 36 | 293 | 0.9 | 2.6 | 0.00 | 0.00 | 0.00 | 70 | 1008.0 |
| 20260505100004 | 36 | 299 | 0.9 | 1.7 | 0.00 | 0.00 | 0.00 | 70 | 1007.9 |
| 20260505094501 | 36 | 307 | 0.0 | 2.6 | 0.00 | 0.00 | 0.00 | 70 | 1008.0 |
| 20260505093043 | 36 | 280 | 0.0 | 1.7 | 0.00 | 0.00 | 0.00 | 69 | 1007.9 |
| 20260505091539 | 37 | 278 | 0.0 | 1.7 | 0.00 | 0.00 | 0.00 | 66 | 1007.9 |
| 20260505090036 | 38 | 299 | 0.0 | 1.7 | 0.00 | 0.00 | 0.00 | 65 | 1007.7 |
| 20260505084518 | 38 | 298 | 0.0 | 2.6 | 0.00 | 0.00 | 0.00 | 65 | 1007.6 |
| 20260505083057 | 39 | 302 | 0.0 | 1.7 | 0.00 | 0.00 | 0.00 | 63 | 1007.5 |
| 20260505081553 | 39 | 312 | 0.9 | 1.7 | 0.00 | 0.00 | 0.00 | 62 | 1007.3 |
| 20260505080038 | 40 | 309 | 0.9 | 1.7 | 0.00 | 0.00 | 0.00 | 61 | 1007.2 |
| 20260505074531 | 40 | 311 | 0.9 | 2.6 | 0.00 | 0.00 | 0.00 | 60 | 1007.1 |
| 20260505073019 | 41 | 314 | 0.9 | 2.6 | 0.00 | 0.00 | 0.00 | 58 | 1007.0 |
| 20260505071515 | 42 | 308 | 0.9 | 2.6 | 0.00 | 0.00 | 0.00 | 56 | 1006.9 |
| 20260505070048 | 44 | 314 | 1.7 | 5.2 | 0.00 | 0.00 | 0.00 | 54 | 1006.8 |
| 20260505064548 | 44 | 313 | 4.3 | 9.6 | 0.00 | 0.00 | 0.00 | 53 | 1006.9 |
| 20260505063034 | 43 | 295 | 1.7 | 6.1 | 0.00 | 0.00 | 0.00 | 54 | 1007.0 |
| 20260505061546 | 43 | 342 | 4.3 | 8.7 | 0.00 | 0.00 | 0.00 | 54 | 1006.9 |
| 20260505060034 | 43 | 318 | 3.5 | 7.8 | 0.00 | 0.00 | 0.00 | 55 | 1006.9 |
| 20260505054552 | 43 | 333 | 3.5 | 7.0 | 0.00 | 0.00 | 0.00 | 54 | 1006.8 |
| 20260505053032 | 42 | 333 | 2.6 | 5.2 | 0.00 | 0.00 | 0.00 | 55 | 1006.7 |
| 20260505051525 | 43 | 309 | 0.9 | 2.6 | 0.00 | 0.00 | 0.00 | 54 | 1006.6 |
| 20260505041600 | 44 | 325 | 0.0 | 0.0 | 0.00 | 0.00 | 0.00 | 52 | 1006.8 |
| 20260505040035 | 45 | 325 | 0.0 | 2.6 | 0.00 | 0.00 | 0.00 | 50 | 1006.8 |
| 20260505034532 | 46 | 327 | 1.7 | 6.1 | 0.00 | 0.00 | 0.00 | 49 | 1006.8 |
| 20260505033011 | 47 | 325 | 2.6 | 6.1 | 0.00 | 0.00 | 0.00 | 48 | 1006.9 |
| 20260505031524 | 47 | 354 | 3.5 | 7.8 | 0.00 | 0.00 | 0.00 | 47 | 1006.8 |
| 20260505030046 | 48 | 10 | 3.5 | 9.6 | 0.00 | 0.00 | 0.00 | 46 | 1006.6 |
| 20260505024543 | 49 | 13 | 5.2 | 13.0 | 0.00 | 0.00 | 0.00 | 45 | 1006.5 |
| 20260505023025 | 49 | 324 | 6.1 | 14.8 | 0.00 | 0.00 | 0.00 | 45 | 1006.1 |
| 20260505021522 | 50 | 325 | 7.0 | 12.2 | 0.00 | 0.00 | 0.00 | 44 | 1005.8 |
| 20260505020058 | 51 | 316 | 6.1 | 13.9 | 0.00 | 0.00 | 0.00 | 42 | 1005.5 |
| 20260505014601 | 51 | 326 | 8.7 | 13.9 | 0.00 | 0.00 | 0.00 | 42 | 1005.0 |
| 20260505013033 | 52 | 319 | 6.1 | 13.9 | 0.00 | 0.00 | 0.00 | 42 | 1004.7 |
| 20260505011534 | 52 | 335 | 6.1 | 14.8 | 0.00 | 0.00 | 0.00 | 42 | 1004.4 |
| 20260505010007 | 53 | 290 | 6.1 | 13.9 | 0.00 | 0.00 | 0.00 | 42 | 1004.1 |
| 20260505004508 | 54 | 325 | 4.3 | 10.4 | 0.00 | 0.00 | 0.00 | 42 | 1003.8 |
| 20260505003045 | 54 | 302 | 4.3 | 13.0 | 0.00 | 0.00 | 0.00 | 42 | 1003.6 |
| 20260505001543 | 54 | 330 | 6.1 | 13.9 | 0.00 | 0.00 | 0.00 | 42 | 1003.5 |
| 20260505000036 | 55 | 325 | 7.8 | 19.1 | 0.00 | 0.00 | 0.00 | 41 | 1003.2 |
| 20260504234519 | 56 | 306 | 7.0 | 20.9 | 0.00 | 0.00 | 0.00 | 42 | 1003.2 |
| 20260504233100 | 57 | 322 | 8.7 | 16.5 | 0.00 | 0.00 | 0.00 | 41 | 1002.7 |
| 20260504231553 | 58 | 315 | 6.1 | 15.6 | 0.00 | 0.00 | 0.00 | 40 | 1002.5 |
| 20260504230055 | 59 | 312 | 7.8 | 19.1 | 0.00 | 0.00 | 0.00 | 39 | 1002.4 |
| 20260504224536 | 61 | 300 | 6.1 | 20.0 | 0.00 | 0.00 | 0.00 | 36 | 1002.4 |
| 20260504223034 | 61 | 337 | 5.2 | 14.8 | 0.00 | 0.00 | 0.00 | 36 | 1002.0 |
| 20260504221542 | 61 | 344 | 6.1 | 14.8 | 0.00 | 0.00 | 0.00 | 36 | 1001.7 |
| 20260504220029 | 61 | 288 | 6.1 | 19.1 | 0.00 | 0.00 | 0.00 | 34 | 1001.5 |
| 20260504214526 | 63 | 268 | 5.2 | 17.4 | 0.00 | 0.00 | 0.00 | 34 | 1001.4 |